Find Kosmos-1844

NORAD ID: 17973 Int'l Des: 1987-041 Owner: GRU Country: SU operational
LEOCIRCULAR

Live Position

Loading 3D Globe...

About Kosmos-1844

Description loading...

Upcoming Passes

Passes for default location (London). Set your location on the main map for personalized predictions.

Altitude History

Loading altitude history...

Two-Line Element Set

1 17973U 87041A 26104.04024713 -.00000078 00000-0 -15229-4 0 9991
2 17973 70.9004 319.6147 0032285 325.8134 34.0908 14.14564931 8589
Epoch: Apr 14, 2026 • Age: 15 hours

Current Status

Altitude 826.8 km
Velocity 7.45 km/s
Sub-Earth Point -8.71°S, 130.55°W
Launch Date May 13, 1987
Age 38.9 years
Type other

Technical Details

Classification Payload
Mass 3250.00 kg
Dry Mass 3250.00 kg
Total Mass 3250.00 kg
Length 4.50 m
Diameter 1.40 m
Span 22.70 m
Shape Cyl + 2 Pan + Ant
Manufacturer YUZH
Bus Type Tselina-2
Phase Status In Orbit
Owner/State GRU/SU

Most Searched